GCHIGCGM

Guest
Details From GCHI - Hierro
To GCGM - La Gomera
Flight Number -
Tags generated
Created
Modified
Stats Distance 38 nm / 70 km
Max Altitude 1,400 ft / 427 m
Waypoints 3
Social Downloads 0
Likes 0
Share VATSIM

Download

Looking for another format? Having issues loading an existing format? Contact us
Advertisement - Login to hide

Notes

Basic altitude profile: - Ascent Rate: 2500ft/min - Ascent Speed: 250kts - Cruise Altitude: 35000ft - Cruise Speed: 420kts - Descent Rate: 1500ft/min - Descent Speed: 250kts Options: - Use NATs: yes - Use PACOTS: yes - Use low airways: yes - Use high airways: yes

Route

GCHI GOMER GCGM

ID Type Via Altitude (ft/m) Position (lat/lon) Dist (leg/tot) Name
O GCHI APT - 0 / 0 27.81485 / -17.88705 - / 0 nm Hierro
GOMER FIX - 1,400 / 427 28.00000 / -17.33333 31 / 31 nm
O GCGM APT - 0 / 0 28.02963 / -17.21460 6 / 37 nm La Gomera

Altitude Profile

Advertisement - Login to hide

GCHI

Details ICAO GCHI (VDE)
Name Hierro
Region Canary Islands
Timezone Atlantic/Canary (UTC+0.0)
Stats Elevation 103 ft / 31 m (AMSL)
Location 27.814700° -17.886900°
Runways 1
Magnetic Variation 5.498° W

METAR

GCHI 221500Z 07009KT 050V110 9999 FEW035 20/11 Q1025

Decode

TAF

TAF GCHI 221400Z 2215/2315 05015KT 9999 SCT035 TX20/2314Z TN17/2306Z PROB30 TEMPO 2217/2315 04015G25KT

Decode

Departure Runways

ID Width Length Bearing (true/mag) Surface Threshold Overrun Markings Lighting
16 98 ft / 30 m 4,110 ft / 1,253 m 152.71° / 158.21° ASPHALT 0 ft / 0 m 0 ft / 0 m APP CENTERLINE EDGE THRESHOLD MALSF
34 98 ft / 30 m 4,110 ft / 1,253 m 332.71° / 338.21° ASPHALT 0 ft / 0 m 0 ft / 0 m APP CENTERLINE EDGE THRESHOLD MALSF

GCGM

Details ICAO GCGM (GMZ)
Name La Gomera
Region Canary Islands
Timezone Atlantic/Canary (UTC+0.0)
Stats Elevation 714 ft / 218 m (AMSL)
Location 28.029600° -17.214600°
Runways 1
Magnetic Variation 5.229° W

METAR

GCGM 221500Z VRB05KT 9999 FEW025 20/08 Q1025 RMK R09/22004KT 160V320 ARP/VRB05KT

Decode

TAF

TAF GCGM 221400Z 2215/2315 02014KT 9999 SCT030 TX20/2314Z TN14/2306Z PROB40 TEMPO 2215/2310 VRB08G20KT PROB30 TEMPO 2219/2307 02015G25KT TEMPO 2215/2217 20005KT

Decode

Destination Runways

ID Width Length Bearing (true/mag) Surface Threshold Overrun Markings Lighting
09 98 ft / 30 m 4,926 ft / 1,501 m 81.17° / 86.40° ASPHALT 0 ft / 0 m 0 ft / 0 m PREC-APP EDGE THRESHOLD REIL-OMNI
27 98 ft / 30 m 4,926 ft / 1,501 m 261.18° / 266.41° ASPHALT 0 ft / 0 m 0 ft / 0 m PREC-APP EDGE THRESHOLD REIL-OMNI

Popular Alternatives